Radiation Dose at Monitoring Post of Fukushima Daini Nuclear Power Station
Date,Time,MP-1(microSv/h),MP-2(microSv/h),MP-3(microSv/h),MP-4(microSv/h),MP-5(microSv/h),MP-6(microSv/h),MP-7(microSv/h),Wind Direction,Wind Velocity(m/s),Rain
2015/07/10,00:00,0.502,0.299,0.512,0.467,0.456,0.232,0.201,south,6.7,No
2015/07/10,00:10,0.503,0.298,0.510,0.465,0.462,0.232,0.202,south,5.9,No
2015/07/10,00:20,0.500,0.299,0.513,0.468,0.456,0.231,0.200,south,5.6,No
2015/07/10,00:30,0.504,0.297,0.509,0.463,0.461,0.233,0.202,south,4.7,No
2015/07/10,00:40,0.500,0.299,0.515,0.468,0.458,0.232,0.201,south,4.1,No
2015/07/10,00:50,0.505,0.298,0.509,0.465,0.460,0.233,0.202,south,3.9,No
2015/07/10,01:00,0.500,0.299,0.515,0.469,0.456,0.234,0.201,south,3.8,No
2015/07/10,01:10,0.506,0.298,0.511,0.466,0.460,0.233,0.201,south,3.1,No
2015/07/10,01:20,0.501,0.300,0.515,0.469,0.460,0.233,0.201,south,3.1,No
2015/07/10,01:30,0.504,0.299,0.512,0.467,0.458,0.233,0.202,south,2.9,No
2015/07/10,01:40,0.503,0.301,0.513,0.469,0.462,0.234,0.201,south,2.3,No
2015/07/10,01:50,0.503,0.300,0.515,0.467,0.459,0.235,0.203,south,1.6,No
2015/07/10,02:00,0.504,0.302,0.511,0.469,0.462,0.233,0.202,south-southeast,1.0,No
2015/07/10,02:10,0.503,0.301,0.513,0.469,0.458,0.234,0.202,south,1.0,No
2015/07/10,02:20,0.507,0.299,0.511,0.468,0.461,0.234,0.202,south,1.0,No
2015/07/10,02:30,0.501,0.300,0.514,0.467,0.459,0.234,0.203,south,1.1,No
2015/07/10,02:40,0.506,0.301,0.512,0.467,0.461,0.234,0.203,south-southwest,1.4,No
2015/07/10,02:50,0.502,0.299,0.515,0.469,0.458,0.234,0.202,south,1.2,No
2015/07/10,03:00,0.508,0.301,0.511,0.466,0.462,0.233,0.204,-,CALM,No
2015/07/10,03:10,0.501,0.302,0.517,0.471,0.458,0.235,0.203,-,CALM,No
2015/07/10,03:20,0.507,0.301,0.512,0.467,0.462,0.233,0.204,-,CALM,No
2015/07/10,03:30,0.503,0.302,0.516,0.471,0.459,0.234,0.203,northwest,1.1,No
2015/07/10,03:40,0.505,0.299,0.512,0.467,0.464,0.234,0.203,north,0.6,No
2015/07/10,03:50,0.503,0.302,0.516,0.471,0.457,0.235,0.202,-,CALM,No
2015/07/10,04:00,0.505,0.300,0.511,0.466,0.462,0.233,0.203,-,CALM,No
2015/07/10,04:10,0.504,0.302,0.517,0.471,0.457,0.234,0.202,-,CALM,No
2015/07/10,04:20,0.506,0.300,0.512,0.466,0.463,0.235,0.202,northwest,0.7,No
2015/07/10,04:30,0.505,0.302,0.515,0.471,0.457,0.233,0.203,north,1.3,No
2015/07/10,04:40,0.505,0.301,0.511,0.466,0.462,0.234,0.201,north,1.5,No
2015/07/10,04:50,0.505,0.302,0.514,0.469,0.457,0.234,0.202,north,1.4,No
2015/07/10,05:00,0.506,0.300,0.514,0.466,0.462,0.234,0.201,north,1.3,No
2015/07/10,05:10,0.505,0.302,0.513,0.470,0.456,0.233,0.202,north,1.4,No
2015/07/10,05:20,0.502,0.300,0.514,0.465,0.462,0.233,0.202,north,1.6,No
2015/07/10,05:30,0.507,0.301,0.513,0.471,0.457,0.235,0.202,north,1.4,No
2015/07/10,05:40,0.501,0.300,0.514,0.465,0.458,0.234,0.201,north-northeast,2.2,No
2015/07/10,05:50,0.507,0.300,0.511,0.469,0.460,0.233,0.203,north-northeast,1.7,No
2015/07/10,06:00,0.500,0.299,0.516,0.465,0.454,0.233,0.200,north-northeast,1.9,No
2015/07/10,06:10,0.507,0.298,0.511,0.467,0.459,0.234,0.202,north-northeast,1.4,No
2015/07/10,06:20,0.500,0.300,0.515,0.466,0.460,0.234,0.203,north-northeast,0.8,No
2015/07/10,06:30,0.504,0.301,0.510,0.465,0.454,0.234,0.200,north,0.7,No
2015/07/10,06:40,0.505,0.298,0.513,0.467,0.460,0.233,0.200,northwest,0.7,No
2015/07/10,06:50,0.501,0.296,0.514,0.463,0.461,0.235,0.200,north-northwest,0.7,No
2015/07/10,07:00,0.506,0.301,0.508,0.469,0.454,0.232,0.202,west-southwest,0.8,No
2015/07/10,07:10,0.504,0.300,0.514,0.466,0.462,0.234,0.202,southwest,0.9,No
2015/07/10,07:20,0.502,0.299,0.513,0.461,0.461,0.233,0.201,west-southwest,0.9,No
2015/07/10,07:30,0.507,0.298,0.507,0.465,0.457,0.234,0.200,southwest,0.5,No
2015/07/10,07:40,0.500,0.297,0.505,0.467,0.461,0.233,0.200,-,CALM,No
2015/07/10,07:50,0.499,0.297,0.505,0.466,0.462,0.233,0.200,-,CALM,No
2015/07/10,08:00,0.504,0.297,0.504,0.461,0.456,0.233,0.199,south-southeast,0.6,No
2015/07/10,08:10,0.503,0.302,0.506,0.461,0.455,0.234,0.199,east-southeast,1.2,No
2015/07/10,08:20,0.498,0.303,0.513,0.460,0.459,0.233,0.201,east-southeast,1.6,No
2015/07/10,08:30,0.499,0.301,0.514,0.460,0.462,0.232,0.201,southeast,1.6,No
2015/07/10,08:40,0.506,0.300,0.512,0.462,0.461,0.233,0.201,east-southeast,1.6,No
2015/07/10,08:50,0.505,0.299,0.508,0.465,0.457,0.234,0.200,east-southeast,1.6,No
2015/07/10,09:00,0.504,0.299,0.513,0.466,0.457,0.234,0.201,southeast,1.7,No
2015/07/10,09:10,0.499,0.299,0.516,0.466,0.455,0.233,0.201,east-southeast,1.2,No
2015/07/10,09:20,0.500,0.298,0.513,0.467,0.456,0.233,0.200,east,1.4,No
2015/07/10,09:30,0.499,0.297,0.509,0.467,0.463,0.233,0.201,east-southeast,1.5,No
2015/07/10,09:40,0.501,0.300,0.512,0.467,0.464,0.233,0.202,southeast,1.6,No
2015/07/10,09:50,0.500,0.299,0.517,0.467,0.461,0.233,0.201,south-southeast,2.1,No
2015/07/10,10:00,0.499,0.300,0.514,0.469,0.459,0.233,0.201,south-southeast,2.2,No
2015/07/10,10:10,0.500,0.298,0.508,0.469,0.459,0.234,0.201,south-southeast,2.2,No
2015/07/10,10:20,0.500,0.299,0.508,0.469,0.457,0.233,0.202,south-southeast,2.6,No
2015/07/10,10:30,0.500,0.299,0.509,0.467,0.456,0.233,0.201,south-southeast,2.5,No
2015/07/10,10:40,0.502,0.298,0.508,0.468,0.457,0.236,0.201,south-southeast,2.6,No
2015/07/10,10:50,0.502,0.299,0.510,0.468,0.457,0.235,0.200,south-southeast,3.1,No
2015/07/10,11:00,0.502,0.300,0.512,0.466,0.457,0.234,0.202,south-southeast,3.1,No
2015/07/10,11:10,0.501,0.298,0.512,0.465,0.458,0.233,0.200,south-southeast,4.1,No
2015/07/10,11:20,0.501,0.297,0.512,0.468,0.458,0.232,0.201,south-southeast,4.2,No
2015/07/10,11:30,0.501,0.299,0.514,0.464,0.459,0.234,0.200,south,4.6,No
2015/07/10,11:40,0.499,0.299,0.514,0.467,0.458,0.234,0.200,south,5.4,No
2015/07/10,11:50,0.499,0.303,0.514,0.466,0.459,0.233,0.200,south-southeast,5.0,No
2015/07/10,12:00,0.499,0.303,0.514,0.466,0.459,0.232,0.200,south-southeast,5.1,No
2015/07/10,12:10,0.501,0.302,0.515,0.467,0.462,0.234,0.200,south,4.7,No
2015/07/10,12:20,0.502,0.299,0.515,0.466,0.465,0.234,0.200,south,5.6,No
2015/07/10,12:30,0.508,0.300,0.514,0.467,0.464,0.234,0.202,south,5.1,No
2015/07/10,12:40,0.509,0.300,0.513,0.466,0.461,0.235,0.200,south,5.2,No
2015/07/10,12:50,0.506,0.299,0.515,0.465,0.460,0.235,0.200,south-southeast,4.6,No
2015/07/10,13:00,0.504,0.297,0.515,0.465,0.459,0.234,0.200,south,5.3,No
2015/07/10,13:10,0.500,0.300,0.515,0.466,0.458,0.233,0.201,south,5.0,No
2015/07/10,13:20,0.504,0.302,0.514,0.467,0.457,0.233,0.204,south,6.2,No
2015/07/10,13:30,0.509,0.303,0.514,0.467,0.457,0.234,0.203,south,4.7,No
2015/07/10,13:40,0.508,0.301,0.514,0.468,0.459,0.234,0.202,south,6.2,No
2015/07/10,13:50,0.504,0.302,0.513,0.467,0.459,0.233,0.202,south,6.1,No
2015/07/10,14:00,0.503,0.300,0.513,0.467,0.459,0.234,0.201,south,6.0,No
2015/07/10,14:10,0.501,0.299,0.516,0.468,0.459,0.234,0.201,south,5.6,No
2015/07/10,14:20,0.502,0.299,0.513,0.470,0.460,0.234,0.201,south,6.4,No
2015/07/10,14:30,0.500,0.299,0.515,0.469,0.460,0.235,0.200,south,7.4,No
2015/07/10,14:40,0.507,0.300,0.512,0.468,0.459,0.234,0.203,south,6.7,No
2015/07/10,14:50,0.509,0.300,0.512,0.467,0.458,0.234,0.202,south,6.9,No
2015/07/10,15:00,0.508,0.301,0.512,0.469,0.459,0.234,0.203,south,7.2,No
2015/07/10,15:10,0.504,0.299,0.511,0.475,0.460,0.237,0.202,south,7.0,No
2015/07/10,15:20,0.502,0.303,0.514,0.473,0.459,0.235,0.201,south,6.9,No
2015/07/10,15:30,0.510,0.303,0.514,0.470,0.460,0.235,0.202,south,8.0,No
2015/07/10,15:40,0.508,0.303,0.514,0.468,0.461,0.234,0.203,south,7.6,No
2015/07/10,15:50,0.504,0.301,0.511,0.476,0.460,0.234,0.203,south,8.6,No
2015/07/10,16:00,0.504,0.299,0.518,0.473,0.461,0.234,0.202,south,9.2,No
2015/07/10,16:10,0.510,0.302,0.520,0.469,0.460,0.235,0.203,south,8.1,No
2015/07/10,16:20,0.509,0.302,0.518,0.470,0.460,0.235,0.203,south,7.5,No
2015/07/10,16:30,0.503,0.302,0.516,0.477,0.460,0.236,0.202,south,7.9,No
2015/07/10,16:40,0.507,0.302,0.523,0.472,0.457,0.234,0.203,south,6.5,No
2015/07/10,16:50,0.510,0.305,0.521,0.468,0.464,0.234,0.203,south,6.4,No
2015/07/10,17:00,0.506,0.303,0.515,0.475,0.468,0.234,0.201,south,6.2,No
2015/07/10,17:10,0.502,0.302,0.517,0.473,0.463,0.235,0.204,south,6.4,No
2015/07/10,17:20,0.505,0.305,0.519,0.468,0.462,0.234,0.202,south,6.8,No
2015/07/10,17:30,0.507,0.303,0.513,0.475,0.459,0.234,0.202,south,7.1,No
2015/07/10,17:40,0.505,0.301,0.516,0.475,0.457,0.235,0.204,south,6.7,No
2015/07/10,17:50,0.505,0.304,0.519,0.468,0.464,0.234,0.202,south-southwest,6.4,No
2015/07/10,18:00,0.511,0.301,0.516,0.472,0.466,0.234,0.203,south-southwest,6.1,No
2015/07/10,18:10,0.507,0.301,0.516,0.473,0.461,0.234,0.204,south-southwest,6.2,No
2015/07/10,18:20,0.505,0.303,0.521,0.468,0.459,0.233,0.203,south,6.3,No
2015/07/10,18:30,0.510,0.302,0.515,0.473,0.467,0.233,0.203,south,6.4,No
2015/07/10,18:40,0.506,0.302,0.517,0.470,0.466,0.234,0.203,south,6.1,No
2015/07/10,18:50,0.503,0.305,0.518,0.469,0.460,0.233,0.203,south,6.1,No
2015/07/10,19:00,0.512,0.302,0.516,0.474,0.467,0.235,0.203,south-southwest,5.3,No
2015/07/10,19:10,0.506,0.303,0.520,0.472,0.463,0.234,0.203,south-southwest,6.7,No
2015/07/10,19:20,0.506,0.304,0.520,0.472,0.461,0.234,0.204,south-southwest,6.7,No
2015/07/10,19:30,0.511,0.300,0.516,0.474,0.468,0.234,0.202,south,5.2,No
2015/07/10,19:40,0.506,0.304,0.521,0.468,0.461,0.234,0.203,south,5.2,No
2015/07/10,19:50,0.506,0.301,0.520,0.474,0.464,0.235,0.203,south-southwest,5.1,No
2015/07/10,20:00,0.510,0.303,0.517,0.473,0.463,0.235,0.204,south-southwest,5.3,No
2015/07/10,20:10,0.505,0.303,0.523,0.468,0.461,0.233,0.204,south-southwest,5.2,No
2015/07/10,20:20,0.511,0.302,0.516,0.475,0.466,0.234,0.202,south-southwest,5.2,No
2015/07/10,20:30,0.507,0.304,0.520,0.471,0.461,0.234,0.203,south-southwest,5.0,No
2015/07/10,20:40,0.504,0.303,0.519,0.473,0.463,0.234,0.202,south-southwest,5.0,No
2015/07/10,20:50,0.509,0.303,0.514,0.473,0.464,0.234,0.204,south-southwest,5.0,No
2015/07/10,21:00,0.504,0.303,0.519,0.470,0.458,0.235,0.203,south-southwest,4.2,No
2015/07/10,21:10,0.508,0.304,0.516,0.475,0.465,0.234,0.203,south-southwest,4.0,No
2015/07/10,21:20,0.508,0.304,0.517,0.472,0.461,0.234,0.204,south-southwest,4.0,No
2015/07/10,21:30,0.505,0.301,0.520,0.472,0.465,0.234,0.204,south-southwest,3.2,No
2015/07/10,21:40,0.510,0.304,0.515,0.475,0.462,0.236,0.204,southwest,2.2,No
2015/07/10,21:50,0.505,0.302,0.521,0.468,0.463,0.235,0.203,west-southwest,1.6,No
2015/07/10,22:00,0.510,0.304,0.517,0.476,0.464,0.234,0.203,west-southwest,0.8,No
2015/07/10,22:10,0.508,0.302,0.519,0.471,0.460,0.235,0.202,southwest,0.6,No
2015/07/10,22:20,0.507,0.304,0.521,0.473,0.466,0.234,0.203,-,CALM,No
2015/07/10,22:30,0.509,0.303,0.515,0.471,0.461,0.236,0.204,-,CALM,No
2015/07/10,22:40,0.507,0.303,0.520,0.471,0.464,0.234,0.205,west,0.8,No
2015/07/10,22:50,0.512,0.304,0.516,0.475,0.463,0.235,0.203,west,0.7,No
2015/07/10,23:00,0.508,0.303,0.520,0.470,0.463,0.235,0.204,south-southwest,0.7,No
2015/07/10,23:10,0.509,0.304,0.520,0.475,0.465,0.236,0.203,-,CALM,No
2015/07/10,23:20,0.507,0.303,0.517,0.470,0.461,0.235,0.204,west-southwest,0.9,No
2015/07/10,23:30,0.505,0.303,0.520,0.474,0.465,0.235,0.205,west-southwest,2.4,No
2015/07/10,23:40,0.511,0.303,0.516,0.472,0.459,0.235,0.204,west-southwest,1.7,No
2015/07/10,23:50,0.506,0.305,0.520,0.473,0.466,0.235,0.204,west,1.6,No
